When you browse on this site, cookies collect data to enhance your experience and personalize the content and advertising you see.
Visit our Privacy Policy to learn more. By continuing to use the site, you agree to this use of cookies and data.
  • In Hungary
  • List of Countries
  • For 7 days
  • Water Temperature
  • Weather Map
  • News
  • Weather Widgets
  • user-avatar
    Login

    Hourly Weather Staromarevka

    Today, 16 October, Wednesday

    Time Temperature Precipitation Wind Pressure Humidity
    00:00 +16°C° 0 mm 0 mps 743 mmHg 44%
    01:00 +15°C° 0 mm 0 mps 743 mmHg 45%
    02:00 +15°C° 0 mm 0 mps 743 mmHg 46%
    03:00 +14°C° 0 mm 0 mps 743 mmHg 49%
    04:00 +14°C° 0 mm 0 mps 743 mmHg 49%
    05:00 +14°C° 0 mm 0 mps 743 mmHg 50%
    06:00 +13°C° 0 mm 0 mps 743 mmHg 50%
    07:00 +16°C° 0 mm 1 mps 743 mmHg 48%
    08:00 +18°C° 0 mm 1 mps 743 mmHg 46%
    09:00 +20°C° 0 mm 1 mps 743 mmHg 44%
    10:00 +20°C° 0 mm 2 mps 743 mmHg 41%
    11:00 +23°C° 0 mm 2 mps 743 mmHg 38%
    12:00 +25°C° 0 mm 2 mps 743 mmHg 35%
    13:00 +25°C° 0 mm 3 mps 743 mmHg 35%
    14:00 +25°C° 0 mm 4 mps 743 mmHg 35%
    15:00 +26°C° 0 mm 4 mps 743 mmHg 34%
    16:00 +23°C° 0 mm 4 mps 743 mmHg 40%
    17:00 +21°C° 0 mm 4 mps 743 mmHg 45%
    18:00 +20°C° 0 mm 3 mps 743 mmHg 50%
    19:00 +19°C° 0 mm 4 mps 743 mmHg 53%
    20:00 +18°C° 0 mm 4 mps 743 mmHg 57%
    21:00 +18°C° 0 mm 4 mps 743 mmHg 60%
    22:00 +17°C° 0 mm 4 mps 743 mmHg 62%
    23:00 +16°C° 0 mm 5 mps 743 mmHg 64%

    Tomorrow, 17 October, Thursday

    Time Temperature Precipitation Wind Pressure Humidity
    00:00 +15°C° 0 mm 5 mps 743 mmHg 67%
    01:00 +15°C° 0 mm 5 mps 743 mmHg 72%
    02:00 +14°C° 0 mm 5 mps 743 mmHg 76%
    03:00 +14°C° 0 mm 4 mps 743 mmHg 81%
    04:00 +13°C° 0 mm 5 mps 743 mmHg 86%
    05:00 +13°C° 0 mm 5 mps 743 mmHg 90%
    06:00 +13°C° 0 mm 5 mps 743 mmHg 95%
    07:00 +14°C° 0 mm 6 mps 743 mmHg 91%
    08:00 +14°C° 0 mm 6 mps 743 mmHg 87%
    09:00 +15°C° 0 mm 7 mps 744 mmHg 83%
    10:00 +16°C° 0 mm 7 mps 744 mmHg 77%
    11:00 +17°C° 0 mm 7 mps 743 mmHg 71%
    12:00 +18°C° 0 mm 7 mps 743 mmHg 66%
    13:00 +20°C° 0 mm 7 mps 743 mmHg 62%
    14:00 +20°C° 0 mm 7 mps 743 mmHg 58%
    15:00 +21°C° 0 mm 7 mps 743 mmHg 54%
    16:00 +20°C° 0 mm 7 mps 743 mmHg 57%
    17:00 +19°C° 0 mm 6 mps 742 mmHg 59%
    18:00 +17°C° 0 mm 5 mps 742 mmHg 62%
    19:00 +16°C° 0 mm 5 mps 742 mmHg 65%
    20:00 +15°C° 0 mm 5 mps 742 mmHg 68%
    21:00 +15°C° 0 mm 5 mps 742 mmHg 71%
    22:00 +14°C° 0 mm 5 mps 742 mmHg 74%
    23:00 +14°C° 0 mm 4 mps 742 mmHg 76%

    Day after tomorrow, 18 October, Friday

    Time Temperature Precipitation Wind Pressure Humidity
    00:00 +13°C° 0 mm 4 mps 742 mmHg 79%
    01:00 +13°C° 0 mm 4 mps 741 mmHg 81%
    02:00 +12°C° 0 mm 3 mps 741 mmHg 82%
    03:00 +12°C° 0 mm 3 mps 741 mmHg 84%
    04:00 +11°C° 0 mm 3 mps 741 mmHg 85%
    05:00 +12°C° 0 mm 2 mps 741 mmHg 87%
    06:00 +12°C° 0 mm 2 mps 741 mmHg 88%
    07:00 +14°C° 0 mm 2 mps 741 mmHg 80%
    08:00 +15°C° 0 mm 2 mps 741 mmHg 71%
    09:00 +17°C° 0 mm 2 mps 741 mmHg 63%
    10:00 +20°C° 0 mm 1 mps 741 mmHg 55%
    11:00 +22°C° 0 mm 1 mps 741 mmHg 47%
    12:00 +24°C° 0 mm 1 mps 741 mmHg 40%
    13:00 +25°C° 0 mm 1 mps 741 mmHg 38%
    14:00 +25°C° 0 mm 1 mps 741 mmHg 37%
    15:00 +26°C° 0 mm 1 mps 741 mmHg 35%
    16:00 +24°C° 0 mm 1 mps 741 mmHg 41%
    17:00 +22°C° 0 mm 1 mps 741 mmHg 46%
    18:00 +18°C° 0 mm 0 mps 741 mmHg 52%
    19:00 +18°C° 0 mm 0 mps 741 mmHg 53%
    20:00 +17°C° 0 mm 0 mps 741 mmHg 55%
    21:00 +17°C° 0 mm 0 mps 741 mmHg 57%
    22:00 +16°C° 0 mm 0 mps 741 mmHg 59%
    23:00 +16°C° 0 mm 0 mps 741 mmHg 60%

    19 October, Saturday

    Time Temperature Precipitation Wind Pressure Humidity
    00:00 +15°C° 0 mm 0 mps 741 mmHg 62%
    01:00 +15°C° 0 mm 0 mps 741 mmHg 63%
    02:00 +15°C° 0 mm 0 mps 741 mmHg 64%
    03:00 +16°C° 0 mm 1 mps 741 mmHg 65%
    04:00 +14°C° 0 mm 0 mps 741 mmHg 65%
    05:00 +14°C° 0 mm 0 mps 741 mmHg 66%
    06:00 +14°C° 0 mm 0 mps 742 mmHg 66%
    07:00 +15°C° 0 mm 0 mps 742 mmHg 62%
    08:00 +17°C° 0 mm 0 mps 742 mmHg 58%
    09:00 +18°C° 0 mm 0 mps 742 mmHg 54%
    10:00 +21°C° 0 mm 1 mps 742 mmHg 51%
    11:00 +23°C° 0 mm 1 mps 742 mmHg 47%
    12:00 +24°C° 0 mm 2 mps 742 mmHg 43%
    13:00 +24°C° 0 mm 2 mps 742 mmHg 41%
    14:00 +25°C° 0 mm 2 mps 742 mmHg 40%
    15:00 +25°C° 0 mm 3 mps 742 mmHg 38%
    16:00 +22°C° 0 mm 3 mps 742 mmHg 41%
    17:00 +21°C° 0 mm 3 mps 742 mmHg 45%
    18:00 +19°C° 0 mm 3 mps 742 mmHg 48%
    19:00 +18°C° 0 mm 3 mps 742 mmHg 50%
    20:00 +17°C° 0 mm 3 mps 743 mmHg 53%
    21:00 +17°C° 0 mm 3 mps 743 mmHg 55%
    22:00 +16°C° 0 mm 3 mps 743 mmHg 59%
    23:00 +16°C° 0 mm 3 mps 743 mmHg 63%

    20 October, Sunday

    Time Temperature Precipitation Wind Pressure Humidity
    00:00 +14°C° 0 mm 3 mps 743 mmHg 67%
    01:00 +14°C° 0 mm 3 mps 743 mmHg 71%
    02:00 +13°C° 0 mm 3 mps 743 mmHg 75%
    03:00 +13°C° 0 mm 3 mps 743 mmHg 79%
    04:00 +13°C° 0 mm 3 mps 743 mmHg 80%
    05:00 +12°C° 0 mm 3 mps 743 mmHg 82%
    06:00 +12°C° 0 mm 3 mps 744 mmHg 83%
    07:00 +13°C° 0 mm 3 mps 744 mmHg 75%
    08:00 +14°C° 0 mm 4 mps 744 mmHg 67%
    09:00 +15°C° 0 mm 5 mps 744 mmHg 60%
    10:00 +17°C° 0 mm 5 mps 745 mmHg 54%
    11:00 +19°C° 0 mm 6 mps 745 mmHg 47%
    12:00 +20°C° 0 mm 6 mps 745 mmHg 41%
    13:00 +21°C° 0 mm 6 mps 745 mmHg 41%
    14:00 +21°C° 0 mm 6 mps 745 mmHg 40%
    15:00 +21°C° 0 mm 6 mps 744 mmHg 40%
    16:00 +20°C° 0 mm 6 mps 745 mmHg 44%
    17:00 +17°C° 0 mm 5 mps 745 mmHg 48%
    18:00 +16°C° 0 mm 5 mps 745 mmHg 52%
    19:00 +15°C° 0 mm 5 mps 745 mmHg 56%
    20:00 +15°C° 0 mm 5 mps 745 mmHg 59%
    21:00 +14°C° 0 mm 5 mps 745 mmHg 63%
    22:00 +13°C° 0 mm 5 mps 745 mmHg 67%
    23:00 +13°C° 0 mm 5 mps 745 mmHg 70%

    21 October, Monday

    Time Temperature Precipitation Wind Pressure Humidity
    00:00 +12°C° 0 mm 5 mps 745 mmHg 73%
    01:00 +12°C° 0 mm 5 mps 745 mmHg 75%
    02:00 +11°C° 0 mm 4 mps 745 mmHg 76%
    03:00 +11°C° 0 mm 4 mps 745 mmHg 78%
    04:00 +11°C° 0 mm 4 mps 746 mmHg 78%
    05:00 +10°C° 0 mm 4 mps 746 mmHg 79%
    06:00 +10°C° 0 mm 4 mps 746 mmHg 80%
    07:00 +10°C° 0 mm 5 mps 746 mmHg 76%
    08:00 +11°C° 0 mm 6 mps 746 mmHg 73%
    09:00 +12°C° 0 mm 7 mps 746 mmHg 69%
    10:00 +15°C° 0 mm 7 mps 746 mmHg 65%
    11:00 +16°C° 0 mm 7 mps 746 mmHg 61%
    12:00 +17°C° 0 mm 7 mps 746 mmHg 57%
    13:00 +17°C° 0 mm 7 mps 746 mmHg 56%
    14:00 +17°C° 0 mm 7 mps 746 mmHg 54%
    15:00 +17°C° 0 mm 7 mps 746 mmHg 53%
    16:00 +16°C° 0 mm 6 mps 745 mmHg 56%
    17:00 +15°C° 0 mm 6 mps 745 mmHg 59%
    18:00 +14°C° 0 mm 5 mps 745 mmHg 62%
    19:00 +13°C° 0 mm 6 mps 745 mmHg 61%
    20:00 +13°C° 0 mm 6 mps 746 mmHg 61%
    21:00 +11°C° 0 mm 6 mps 746 mmHg 61%
    22:00 +11°C° 0 mm 6 mps 745 mmHg 62%
    23:00 +10°C° 0 mm 6 mps 745 mmHg 63%
    Show more